TDRS 12

Last updated on Wed Feb 18 2026 00:02:41 GMT+0000 (Coordinated Universal Time)

1 39504U 14004A 26048.40808925 -.00000263 00000+0 00000+0 0 9996 2 39504 3.8620 16.9753 0004657 261.6795 334.6859 1.00275234 43077
UTC large
Height (km)
Speed (km/s)
/
Latitude / Longitude
Inclination (degrees)
Orbital Period (minutes)
Azimuth
Elevation
Range (km)
Doppler Factor

Next 0 passes for location: London (51.5072 / 0.1276)

Sorry there are no passes over London.